Weather History for Berlin, NH

Change the Weather History Date:

Tuesday, October 9, 2012

  Actual Average Record
Temperature  
Mean Temperature 42 °F -  
Max Temperature 55 °F 57 °F 81 °F (2011)
Min Temperature 30 °F 30 °F 18 °F (2001)
Degree Days  
Heating Degree Days 22    
Moisture  
Dew Point 34 °F    
Average Humidity 88    
Maximum Humidity 100    
Minimum Humidity 53    
Precipitation  
Precipitation 0.00 in - - ()
Sea Level Pressure  
Sea Level Pressure 30.31 in    
Wind  
Wind Speed 1 mph (SSE)    
Max Wind Speed 14 mph    
Max Gust Speed 23 mph    
Visibility 6 miles    
Events Fog , Rain    
Averages and records for this station are not official NWS values.
T = Trace of Precipitation, MM = Missing Value Source: NWS Daily Summary

Daily Weather History Graph

Daily Weather History Graph

Search for Another Location

Airport:

Trip Planner

Search our weather history database for the weather conditions in past years. The results will help you decide how hot, cold, wet, or windy it might be!

Date:

Astronomy

Oct. 09, 2012 Rise Set
Actual Time 6:52 AM EDT 6:09 PM EDT
Civil Twilight 6:23 AM EDT 6:39 PM EDT
Nautical Twilight 5:50 AM EDT 7:12 PM EDT
Astronomical Twilight 5:16 AM EDT 7:46 PM EDT
Moon 12:12 AM EDT (10/9) 2:48 PM EDT (10/9)
Length of Visible Light 12h 15m
Length of Day
11h 17m
Last Quarter, 37% of the Moon is Illuminated
Oct 9
Last Quarter
Oct 15
New
Oct 21
First Quarter
Oct 29
Full
Nov 6
Last Quarter

Hourly Weather History & Observations

Time (EDT) Temp. Windchill Dew Point Humidity Pressure Visibility Wind Dir Wind Speed Gust Speed Precip Events Conditions
12:52 AM 32.0 °F - 30.0 °F 92% 30.36 in 0.5 mi Calm Calm - N/A Fog Fog
1:04 AM 32.0 °F - 30.2 °F 93% 30.33 in 0.2 mi Calm Calm - N/A Fog Fog
1:27 AM 32.0 °F - 30.2 °F 93% 30.32 in 0.2 mi Calm Calm - N/A Fog Fog
1:30 AM 32.0 °F - 30.2 °F 93% 30.32 in 0.5 mi Calm Calm - N/A Fog Fog
1:40 AM 30.2 °F - 30.2 °F 100% 30.33 in 0.5 mi Calm Calm - N/A Fog Light Freezing Fog
1:52 AM 30.9 °F - 30.0 °F 96% 30.37 in 0.8 mi Calm Calm - N/A   Mist
2:11 AM 32.0 °F - 30.2 °F 93% 30.33 in 0.2 mi Calm Calm - N/A Fog Fog
2:20 AM 32.0 °F - 30.2 °F 93% 30.33 in 0.2 mi Calm Calm - N/A Fog Fog
2:52 AM 30.9 °F - 30.0 °F 96% 30.36 in 0.2 mi Calm Calm - N/A Fog Light Freezing Fog
3:04 AM 30.2 °F - 30.2 °F 100% 30.33 in 0.8 mi Calm Calm - N/A   Mist
3:52 AM 30.9 °F - 30.0 °F 96% 30.36 in 0.2 mi Calm Calm - N/A Fog Light Freezing Fog
4:21 AM 30.2 °F - 28.4 °F 93% 30.32 in 1.0 mi Calm Calm - N/A   Mist
4:28 AM 30.2 °F - 28.4 °F 93% 30.32 in 2.0 mi Calm Calm - N/A   Overcast
4:36 AM 30.2 °F - 28.4 °F 93% 30.33 in 10.0 mi Calm Calm - N/A   Overcast
4:52 AM 30.9 °F - 30.0 °F 96% 30.37 in 3.0 mi Calm Calm - N/A   Overcast
4:59 AM 30.2 °F - 30.2 °F 100% 30.33 in 2.0 mi Calm Calm - N/A   Overcast
5:10 AM 30.2 °F - 30.2 °F 100% 30.33 in 3.0 mi Calm Calm - N/A   Overcast
5:14 AM 30.2 °F - 30.2 °F 100% 30.33 in 1.8 mi Calm Calm - N/A   Overcast
5:21 AM 30.2 °F - 30.2 °F 100% 30.33 in 0.8 mi Calm Calm - N/A   Overcast
5:43 AM 30.2 °F - 30.2 °F 100% 30.33 in 1.5 mi Calm Calm - N/A   Overcast
5:50 AM 32.0 °F - 30.2 °F 93% 30.33 in 3.0 mi Calm Calm - N/A   Overcast
5:51 AM 32.0 °F - 30.0 °F 92% 30.37 in 3.0 mi Calm Calm - N/A   Overcast
7:25 AM 33.8 °F - 32.0 °F 93% 30.33 in 4.0 mi Calm Calm - 0.00 in Rain Light Freezing Rain
7:52 AM 33.1 °F - 32.0 °F 96% 30.37 in 9.0 mi Calm Calm - 0.00 in Rain Light Freezing Rain
7:57 AM 33.8 °F - 33.8 °F 100% 30.33 in 10.0 mi Calm Calm - N/A   Overcast
8:13 AM 33.8 °F - 33.8 °F 100% 30.33 in 10.0 mi Calm Calm - N/A   Overcast
8:30 AM 33.8 °F - 33.8 °F 100% 30.33 in 10.0 mi Calm Calm - N/A   Overcast
8:52 AM 36.0 °F 33.3 °F 34.0 °F 93% 30.37 in 10.0 mi North 3.5 mph - N/A   Overcast
9:52 AM 41.0 °F - 37.9 °F 89% 30.36 in 10.0 mi Calm Calm - N/A   Overcast
10:52 AM 46.9 °F - 39.0 °F 74% 30.35 in 10.0 mi Calm Calm - N/A   Mostly Cloudy
11:42 AM 51.8 °F - 39.2 °F 62% 30.30 in 10.0 mi SE 11.5 mph 19.6 mph N/A   Overcast
11:52 AM 52.0 °F - 39.9 °F 63% 30.33 in 10.0 mi South 8.1 mph - N/A   Mostly Cloudy
12:52 PM 53.1 °F - 39.0 °F 59% 30.30 in 10.0 mi SSE 6.9 mph - N/A   Scattered Clouds
1:52 PM 55.0 °F - 37.9 °F 53% 30.27 in 10.0 mi SE 13.8 mph 23.0 mph N/A   Partly Cloudy
2:52 PM 53.1 °F - 37.9 °F 57% 30.25 in 10.0 mi SSE 9.2 mph 19.6 mph N/A   Overcast
3:52 PM 53.1 °F - 37.9 °F 57% 30.24 in 10.0 mi South 9.2 mph - N/A   Mostly Cloudy
4:52 PM 50.0 °F - 39.0 °F 66% 30.23 in 10.0 mi SSE 9.2 mph - N/A   Clear
5:52 PM 48.0 °F - 39.0 °F 71% 30.23 in 10.0 mi SSE 5.8 mph - N/A   Partly Cloudy
6:52 PM 41.0 °F - 37.9 °F 89% 30.23 in 10.0 mi Calm Calm - N/A   Partly Cloudy
7:52 PM 41.0 °F - 37.9 °F 89% 30.22 in 10.0 mi Calm Calm - N/A   Mostly Cloudy
8:27 PM 44.6 °F - 39.2 °F 81% 30.18 in 10.0 mi Calm Calm - N/A   Overcast
8:52 PM 41.0 °F - 37.9 °F 89% 30.22 in 10.0 mi Calm Calm - N/A   Overcast
9:52 PM 44.1 °F 40.8 °F 39.9 °F 85% 30.20 in 10.0 mi SE 5.8 mph - N/A   Mostly Cloudy
10:52 PM 39.9 °F - 37.0 °F 89% 30.19 in 10.0 mi Calm Calm - N/A   Mostly Cloudy
11:52 PM 39.9 °F - 37.9 °F 93% 30.16 in 9.0 mi Calm Calm - N/A   Mostly Cloudy